Wind_Speed
58 54 53 54 57 56 50 46 42 37 33 32 32 32 32 36 44 46 45 44 39 39 41 42 43 43 45 41 39 37 36 34 32 33 32 30 31 32
53 54 50 48 45 40 39 38 36 32 28 28 28 27 26 24 26 32 31 31 24 26 31 36 38 32 38 35 33 32 32 32 31 32 31 29 30 29
43 41 38 37 37 36 33 32 32 32 34 35 32 28 25 24 21 22 26 28 29 22 25 25 28 32 33 32 27 27 28 28 27 27 27 26 27 26
29 29 30 32 32 32 32 34 32 33 37 33 30 26 23 20 27 26 25 34 32 19 24 27 30 27 25 25 23 24 25 26 26 24 23 22 24 25
25 25 25 27 30 31 30 30 30 28 29 28 24 22 23 22 26 30 28 36 32 25 26 26 23 20 19 19 20 23 23 23 23 23 22 24 25 28
26 26 24 23 27 27 27 27 24 22 23 22 20 20 22 24 25 28 30 38 24 18 20 22 21 19 18 20 21 22 20 20 21 23 24 26 26 31
21 18 17 20 21 20 19 19 18 17 19 20 19 17 19 23 23 25 24 29 23 19 22 24 23 20 19 19 20 20 18 18 22 21 21 24 27 23
9 11 13 15 13 11 10 11 13 15 15 14 15 18 19 20 20 21 21 29 26 30 27 23 21 18 17 17 17 18 18 19 19 19 19 21 17 11
6 9 10 8 3 4 3 6 10 11 13 12 10 17 19 20 23 22 24 31 30 28 25 20 18 18 17 15 17 18 18 18 18 20 17 10 6 8
6 7 6 5 5 4 1 4 6 7 10 11 13 17 19 21 22 26 31 30 25 23 21 18 18 18 19 17 17 18 19 20 19 13 5 4 5 6
2 3 3 4 6 6 5 8 9 11 17 18 16 18 19 21 21 21 23 23 21 20 19 18 16 17 19 18 18 19 20 19 12 9 8 6 4 3
7 10 9 7 2 1 3 6 6 6 9 13 15 15 14 15 18 19 19 18 19 19 18 17 18 19 20 20 21 21 17 11 11 10 7 3 0 2
10 10 9 11 9 8 7 8 8 6 8 11 15 16 15 15 15 15 13 16 18 18 17 17 17 18 19 18 14 10 11 14 13 9 6 3 1 1
7 4 1 5 8 11 11 10 10 8 10 18 22 23 20 20 20 19 17 15 16 18 18 18 17 18 18 16 14 16 18 16 12 9 5 3 3 5
4 5 7 8 9 8 10 10 8 6 4 10 19 22 21 20 20 16 13 13 17 19 18 18 17 16 15 16 19 20 19 16 12 8 6 6 7 8
7 3 1 3 6 8 7 5 4 6 6 7 9 11 15 18 18 17 17 17 18 18 18 16 15 16 19 19 22 22 18 15 11 9 9 9 9 8
17 13 9 8 9 8 8 7 6 6 7 7 8 10 11 13 16 18 19 19 18 17 16 15 15 18 21 25 24 21 18 15 13 12 11 11 10 9
21 21 20 18 17 15 13 12 11 10 9 10 9 9 11 11 12 13 13 14 16 17 17 19 20 20 22 24 24 22 18 17 17 15 12 10 9 9
18 20 23 24 23 22 20 18 17 15 13 12 10 9 8 8 8 9 10 13 15 17 19 22 25 27 26 23 20 20 20 20 19 16 12 8 7 8
20 16 17 21 24 25 25 23 22 20 19 18 16 14 12 10 9 10 12 15 17 20 22 25 27 28 28 26 22 20 20 21 19 16 12 8 9 9
18 18 14 14 19 23 25 25 25 23 22 21 20 18 16 14 13 13 15 17 20 23 25 27 27 27 27 27 24 22 21 19 17 14 12 9 9 10
16 14 11 8 9 16 21 23 24 24 23 22 21 20 20 19 18 18 18 20 22 25 28 29 28 27 28 27 25 24 22 19 17 14 11 9 8 9
15 12 9 6 1 8 15 19 22 23 24 23 22 22 23 23 23 22 22 24 26 28 30 30 29 29 28 26 26 25 23 19 16 14 11 8 7 6
Wind_Direction
278 279 281 280 282 284 283 280 277 276 273 274 274 271 264 252 250 249 246 244 242 242 241 240 240 243 246 248 252 256 258 263 270 273 276 278 280 275
276 277 278 279 279 279 278 277 278 277 274 277 277 275 266 253 235 237 239 235 225 239 241 239 238 231 243 249 251 255 259 265 271 273 276 277 275 275
275 272 273 272 274 274 274 276 275 277 277 278 273 267 258 240 223 214 217 202 192 223 234 224 235 239 243 248 253 256 262 270 273 273 275 274 270 270
277 276 275 272 270 272 275 275 273 266 266 269 266 256 240 229 216 218 194 186 182 201 231 227 231 240 240 245 253 260 268 271 270 274 271 266 263 272
284 281 279 279 278 275 272 269 269 263 260 262 259 243 232 223 219 218 207 190 193 216 235 233 233 232 236 246 254 260 265 267 267 266 263 263 263 272
287 286 287 287 283 274 266 265 261 256 257 255 250 235 228 221 216 216 212 196 198 214 217 220 228 235 241 250 256 260 267 267 265 266 265 263 270 280
299 298 296 295 287 271 269 261 255 252 254 243 237 225 219 214 215 217 204 204 207 223 225 228 235 236 240 250 261 267 267 262 265 268 269 266 271 266
315 325 316 304 281 271 271 248 244 240 240 227 221 228 213 207 215 215 197 196 206 218 223 234 236 236 240 250 260 263 257 265 268 267 265 264 259 257
333 337 338 342 294 282 249 225 226 209 208 219 219 208 194 186 189 184 193 206 218 223 223 225 226 232 234 240 251 254 258 258 261 263 252 243 252 255
344 355 16 49 42 18 42 118 138 184 195 197 187 170 165 175 182 190 197 203 208 210 212 221 226 228 227 237 244 250 253 253 251 235 204 201 223 244
5 8 9 65 57 58 98 137 133 139 142 150 150 156 169 179 184 191 198 203 207 214 219 224 227 223 223 233 243 252 256 247 218 176 169 182 204 255
275 300 274 257 309 44 139 159 167 146 142 149 156 159 176 185 189 191 198 208 215 219 226 236 229 226 226 234 245 254 247 205 161 156 152 138 54 304
309 294 268 271 224 211 204 207 209 198 195 184 182 189 199 201 200 203 209 215 217 228 235 229 222 226 233 234 229 208 160 146 145 139 126 106 77 82
350 21 175 192 177 199 209 210 202 194 207 208 202 204 219 222 214 220 228 228 230 232 221 216 217 220 219 205 173 149 142 145 144 132 117 110 99 69
8 42 62 107 126 149 167 167 165 172 174 188 202 211 213 205 196 201 214 217 212 211 214 212 212 208 194 175 157 150 148 148 139 130 127 114 89 71
291 275 225 163 173 184 193 201 198 181 185 168 167 177 183 184 184 188 193 197 198 201 206 211 196 183 167 158 154 152 152 145 136 135 123 109 93 74
273 269 249 217 217 227 227 212 199 183 171 169 166 165 167 172 184 191 194 199 201 197 189 179 173 170 161 154 156 153 146 142 138 130 121 112 105 99
269 262 255 247 241 237 230 225 214 203 190 177 168 161 160 166 174 183 188 191 192 189 179 168 160 160 159 159 159 151 149 147 138 131 125 121 110 96
279 265 255 249 243 239 232 226 223 215 206 198 188 183 178 170 163 165 170 174 177 176 171 165 161 160 158 159 158 154 151 147 139 134 132 127 103 87
316 294 266 251 243 239 235 229 224 219 212 207 203 202 200 195 184 176 176 173 171 170 168 165 163 164 162 158 157 156 154 149 143 139 135 121 96 81
334 322 301 261 241 235 232 229 226 220 215 210 206 205 203 198 192 188 186 182 176 173 169 167 166 167 167 162 157 155 154 150 143 139 131 113 95 86
347 342 331 304 242 224 221 220 218 218 215 211 205 201 198 196 194 193 191 184 178 174 170 168 167 170 171 166 160 156 155 155 152 146 136 120 100 90
354 358 1 358 218 193 197 202 203 203 204 202 197 194 193 193 194 193 191 184 177 174 172 170 170 171 171 168 163 158 156 156 154 149 141 120 90 85
Height
5611 5611 5611 5610 5608 5604 5601 5598 5597 5597 5598 5598 5598 5598 5598 5602 5609 5615 5623 5631 5641 5646 5652 5656 5660 5663 5666 5668 5670 5673 5675 5676 5678 5678 5678 5677 5677 5676
5596 5596 5596 5595 5593 5590 5589 5588 5586 5585 5586 5588 5588 5590 5590 5592 5597 5603 5610 5620 5631 5636 5641 5644 5649 5655 5657 5660 5662 5664 5666 5668 5669 5670 5669 5669 5669 5668
5582 5582 5582 5581 5581 5579 5578 5577 5577 5576 5576 5577 5578 5581 5583 5585 5591 5595 5600 5610 5621 5627 5631 5637 5639 5644 5648 5652 5654 5656 5658 5660 5660 5661 5661 5661 5660 5660
5571 5571 5571 5570 5569 5569 5568 5568 5566 5567 5567 5567 5568 5571 5574 5577 5584 5588 5593 5601 5610 5619 5622 5628 5632 5637 5640 5643 5646 5648 5649 5650 5651 5652 5652 5652 5652 5652
5562 5562 5561 5560 5559 5558 5557 5557 5557 5557 5558 5558 5560 5563 5567 5572 5577 5583 5588 5596 5604 5612 5615 5619 5625 5629 5632 5636 5638 5640 5641 5642 5644 5644 5644 5644 5644 5643
5555 5554 5553 5552 5549 5547 5548 5548 5548 5550 5551 5553 5556 5558 5562 5567 5572 5577 5583 5590 5598 5606 5609 5613 5618 5622 5624 5628 5630 5633 5634 5635 5636 5636 5637 5637 5636 5636
5549 5547 5545 5543 5539 5539 5538 5539 5541 5544 5546 5549 5551 5554 5558 5563 5568 5574 5579 5586 5593 5598 5602 5607 5612 5616 5619 5621 5623 5625 5626 5628 5629 5630 5630 5629 5629 5628
5545 5543 5540 5537 5536 5534 5534 5535 5537 5540 5542 5544 5547 5552 5556 5560 5567 5572 5578 5586 5589 5593 5598 5602 5607 5610 5613 5615 5617 5618 5621 5622 5623 5623 5624 5623 5623 5623
5543 5541 5538 5535 5532 5531 5532 5533 5535 5536 5538 5542 5544 5548 5552 5557 5564 5570 5577 5581 5585 5590 5594 5598 5602 5605 5608 5610 5612 5615 5617 5618 5618 5618 5619 5619 5620 5622
5543 5541 5539 5535 5532 5531 5532 5533 5534 5535 5536 5539 5542 5545 5551 5557 5562 5568 5572 5577 5581 5586 5591 5594 5597 5600 5603 5606 5608 5611 5612 5613 5613 5614 5615 5618 5619 5619
5544 5542 5540 5538 5536 5535 5535 5535 5535 5536 5537 5540 5543 5546 5551 5556 5560 5565 5570 5575 5578 5583 5587 5590 5592 5595 5599 5602 5605 5607 5607 5608 5609 5611 5615 5617 5617 5617
5542 5541 5539 5538 5539 5540 5539 5538 5538 5539 5541 5542 5544 5547 5551 5555 5560 5564 5569 5572 5576 5580 5583 5586 5589 5592 5596 5599 5600 5601 5603 5605 5608 5612 5614 5615 5615 5615
5538 5536 5536 5535 5537 5539 5539 5539 5539 5539 5541 5542 5545 5548 5552 5556 5561 5564 5567 5570 5573 5577 5581 5583 5587 5590 5593 5595 5596 5598 5601 5605 5609 5612 5613 5614 5615 5615
5536 5533 5532 5532 5533 5535 5537 5537 5538 5539 5539 5541 5544 5547 5551 5554 5558 5561 5564 5566 5570 5574 5578 5581 5584 5586 5589 5592 5595 5599 5603 5607 5610 5612 5613 5615 5615 5615
5538 5536 5534 5532 5533 5535 5535 5536 5538 5539 5538 5539 5541 5544 5547 5550 5554 5557 5559 5563 5567 5571 5575 5578 5581 5584 5587 5591 5595 5600 5604 5607 5610 5612 5614 5615 5615 5615
5537 5537 5536 5534 5534 5535 5536 5536 5537 5538 5538 5539 5541 5542 5545 5548 5551 5555 5558 5562 5566 5570 5574 5577 5580 5583 5587 5591 5595 5600 5604 5608 5611 5614 5615 5615 5616 5616
5534 5534 5534 5534 5533 5534 5534 5535 5536 5537 5538 5539 5541 5543 5546 5548 5551 5556 5559 5563 5566 5569 5572 5576 5580 5584 5587 5591 5597 5601 5605 5609 5612 5614 5615 5616 5617 5619
5528 5528 5528 5529 5530 5531 5532 5533 5535 5536 5538 5539 5541 5543 5546 5548 5552 5555 5558 5561 5564 5567 5571 5576 5580 5586 5591 5595 5598 5602 5607 5611 5613 5615 5617 5618 5619 5619
5519 5518 5519 5520 5522 5525 5527 5529 5531 5533 5536 5539 5541 5543 5546 5549 5552 5555 5558 5561 5564 5568 5572 5576 5581 5587 5592 5597 5602 5605 5609 5612 5614 5616 5618 5620 5620 5619
5508 5508 5509 5510 5513 5516 5519 5522 5526 5529 5532 5536 5540 5543 5546 5550 5554 5556 5559 5561 5564 5569 5573 5578 5583 5588 5592 5597 5603 5607 5610 5612 5614 5617 5620 5621 5620 5620
5505 5501 5500 5502 5504 5507 5510 5515 5519 5524 5528 5532 5537 5541 5545 5550 5553 5556 5559 5561 5565 5569 5574 5580 5585 5590 5595 5599 5604 5608 5612 5614 5617 5619 5621 5622 5622 5621
5504 5500 5496 5495 5496 5499 5503 5507 5513 5518 5523 5528 5533 5538 5542 5547 5551 5555 5558 5561 5565 5569 5574 5580 5586 5591 5597 5601 5605 5609 5612 5615 5618 5621 5622 5623 5623 5623
5501 5498 5495 5493 5493 5494 5497 5501 5506 5512 5517 5523 5529 5534 5539 5544 5549 5553 5557 5561 5565 5570 5575 5581 5586 5592 5598 5603 5606 5610 5613 5616 5619 5621 5623 5624 5624 5624